7 * 24
多渠道服务支持
GHOST-2是美国于2023年4月15日发射的一颗卫星,目前处于在轨运行状态,国际标识为2023-054V。该卫星属于全球高光谱观测卫星计划,运行在近极地太阳同步轨道,轨道倾角约97.3°,轨道周期约89.6分钟,轨道平均高度约254公里。一般认为GHOST-2由美国国家侦察局主导开发,主要用于高分辨率对地观测与战略情报收集,其入役标志着美国空间侦察能力进一步提升。
美国
(US)
| 数据来源 | 国际轨道数据 |
| 星历时间: | 2025-12-15T13:04:27+0800 轨道信息已过期79天 |
| 半长轴: | 6522.838km |
| 偏心率: | 0.0007294 |
| 轨道倾角: | 97.290° |
| 近地点辐角 | 242.768° |
| 升交点赤经 | 265.660° |
| 平近点角 | 117.288° |
| 近地点: | 139.945km |
| 远地点: | 149.461km |
| 周期: | 87.381分钟 |
| 每日圈数: | 16.479646 |